Powrót do katalogu

MAGION 3

AktywnyNaukaPO
NORAD 21835·PAYLOAD·🇨🇿 Czechia

Wystrzelony Dec 18, 1991 z Plesetsk Cosmodrome

Loading…

Następne Przeloty (najbliższe 24 godziny)

TLE

ŚwieżeSource: Space-Track

Epoka: Sep 14, 2026, 21:01 UTC

1 21835U 91086E   26257.87624837  .00000823  00000-0  15095-3 0  9996
2 21835  82.5339 127.6605 1448050 264.6203  78.8581 12.21649823524526

Śledź MAGION 3 w czasie rzeczywistym z AllMySat

Download on the App Store